Weather Roundup
Issued by NWS Corpus Christi, TX

Home | Current Version | Previous Version | Text Only | Print | Product List | Glossary On
Versions: 1 2 3 4 5 6 7 8 9 10 11 12 13 14 15 16 17 18 19 20 21 22 23 24 25 26 27 28 29 30 31 32 33 34 35 36 37 38 39 40 41 42 43 44 45 46 47 48 49 50
892
ASUS44 KCRP 081810
HRRCRP

SOUTH TEXAS REGIONAL WEATHER ROUNDUP
NATIONAL WEATHER SERVICE CORPUS CHRISTI TX
1200 PM CST THU DEC 08 2016


TXZ229>244-081900-
...CORPUS CHRISTI AREA OBSERVATIONS...

CITY           SKY/WX    TMP DP  RH WIND       PRES   REMARKS
CORPUS CHRISTI DRIZZLE   48  44  86 N31G39    30.34F
NAS CORPUS CHR CLOUDY    49  46  90 N35G43    30.32F
ROCKPORT         N/A    N/A N/A N/A MISG      30.35S
KINGSVILLE NAS CLOUDY    48  47  96 N17G28    30.36R
ALICE            N/A     45  43  93 MISG      30.37S
ORANGE GROVE   CLOUDY    45  43  93 N18G29    30.40F
FALFURRIAS     CLOUDY    49  45  84 N17G29    30.35F
$$

...VICTORIA AREA OBSERVATIONS...

CITY           SKY/WX    TMP DP  RH WIND       PRES   REMARKS
VICTORIA       CLOUDY    47  39  74 N24G36    30.39F
BEEVILLE       DRIZZLE   46  39  77 N18G24    30.41R
PLEASANTON     CLOUDY    46  32  58 N13G21    30.46S
SAN ANTONIO    CLOUDY    44  28  53 N20G30    30.46S
$$

...LAREDO AREA OBSERVATIONS...

CITY           SKY/WX    TMP DP  RH WIND       PRES   REMARKS
LAREDO         CLOUDY    48  42  80 N17G24    30.44S
COTULLA        CLOUDY    49  34  56 N17G23    30.47S
DEL RIO        CLOUDY    43  30  60 N10       30.54R
MCALLEN        LGT RAIN  55  51  86 NW17G26   30.34S FOG
HEBBRONVILLE   LGT RAIN  45  42  90 N14G22    30.40R
$$

...OTHER TEXAS OBSERVATIONS...

CITY           SKY/WX    TMP DP  RH WIND       PRES   REMARKS
BROWNSVILLE    LGT RAIN  61  60  97 NW17G24   30.24S
HOUSTON        CLOUDY    46  40  79 N18       30.43F
COL. STATION   CLOUDY    43  33  68 N17G24    30.50F
AUSTIN         CLOUDY    42  30  62 N31G38    30.49F
WACO           CLOUDY    36  25  64 N21G28    30.59F WCI  25
FORT WORTH     CLOUDY    33  17  51 N20       30.64F WCI  21
WICHITA FALLS  CLOUDY    32  12  43 N16       30.71F WCI  21
LUBBOCK        CLOUDY    27  14  58 NE9       30.58F
EL PASO        PTSUNNY   38  24  57 E9        30.41F
$$

...MARINE OBSERVATIONS...

STATION/POSITION TIME  SKY/WX   TEMP    WIND        PRES    VSBY  WAVE   SWELL
                                AIR SEA DIR/SP/G                  HT/PER HT/PER
                 (UTC)          (F)     (DEG/KT/KT) (MB)    (MI)  (FT/S) (FT/S)
PORT ARANSAS     1700            51 62  360/ 24/ 30 1026.6R
BUOY 90 E PORT A 1750            62 77   20/ 31/ 37 1023.3F        12/ 8
BUOY 45 SE BAFFI 1750            65 76   30/ 31/ 39 1022.0F        12/ 9
BUOY 200 E PT IS 1750            75 77   80/ 16/ 19 1018.2F         5/ 6
BUOY 15 E GALVES 1750            51 65   10/ 23/ 29 1027.2R         7/ 6
$$




USA.gov is the U.S. government's official web portal to all federal, state and local government web resources and services.